Regional Weather Roundup
Issued by NWS Upton, NY

Home | Current Version | Previous Version | Text Only | Print | Product List | Glossary On
Versions: 1 2 3 4 5 6 7 8 9 10 11 12 13 14 15 16 17 18 19 20 21 22 23 24 25 26 27 28 29 30 31 32 33 34 35 36 37 38 39 40 41 42 43 44 45 46 47 48 49 50
000
ASUS41 KOKX 261509
RWROKX

REGIONAL WEATHER ROUNDUP
NATIONAL WEATHER SERVICE NEW YORK NY
1100 AM EDT WED JUL 26 2017

NOTE: "FAIR" INDICATES FEW OR NO CLOUDS BELOW 12,000 FEET WITH NO
SIGNIFICANT WEATHER AND/OR OBSTRUCTIONS TO VISIBILITY.

NYZ071-072-176-178-NJZ106-104-261600-
NEW YORK CITY METRO AREA

CITY           SKY/WX    TMP DP  RH WIND       PRES   REMARKS
Central Park   SUNNY     73  55  53 VRB6      30.27F
Bronx Bot Gard   N/A     72  50  46 E6        30.27S
LaGuardia APRT MOSUNNY   73  56  54 NE9       30.23F
Kennedy INTL   MOSUNNY   73  58  59 S9        30.25F
Breezy Point     N/A     68 N/A N/A SE8         N/A
Newark/Liberty MOSUNNY   75  55  49 NE9       30.24F
Teterboro      SUNNY     74  54  49 E7        30.23F
$$

NYZ177-179-078>081-261600-
LONG ISLAND NEW YORK

CITY           SKY/WX    TMP DP  RH WIND       PRES   REMARKS
Jones Beach      N/A     68 N/A N/A SE9         N/A
Matinecock PT    N/A     68 N/A N/A NE8         N/A
Farmingdale    SUNNY     72  56  57 E9        30.24F
MacArthur/ISP  MOSUNNY   74  55  51 VRB6      30.24F
Shirley        MOSUNNY   74  56  53 VRB6      30.25F
Mt Sinai Harb    N/A    N/A N/A N/A N2          N/A
Westhampton    MOSUNNY   73  56  54 NE9       30.26S
East Hampton   FAIR      72  58  61 E6        30.25S
Montauk          N/A     70  59  68 VRB5      30.27R
$$

NYZ052-065-067-261600-
HUDSON VALLEY

CITY           SKY/WX    TMP DP  RH WIND       PRES   REMARKS
White Plains   MOSUNNY   73  54  51 SE9       30.25S
Larchmont Harb   N/A     68 N/A N/A E7          N/A
Croton O-T Hud   N/A     70 N/A N/A W2          N/A
Newburgh       MOSUNNY   70  59  68 CALM      30.26F
Montgomery     SUNNY     72  57  59 CALM      30.25F
Poughkeepsie   MOSUNNY   70  56  61 NW3       30.24F
Albany         MOSUNNY   68  60  75 CALM      30.25F
$$

NJZ001-105-106-008-010-013-015-019>022-104-261600-
NEW JERSEY

CITY           SKY/WX    TMP DP  RH WIND       PRES   REMARKS
Newark/Liberty MOSUNNY   75  55  49 NE9       30.24F
Teterboro      SUNNY     74  54  49 E7        30.23F
Caldwell       MOSUNNY   73  56  54 SE6       30.25S
Somerville     CLOUDY    73  59  61 CALM      30.23S
Linden         FAIR      74  53  47 CALM      30.25R
Perth Amboy      N/A     68 N/A N/A E9          N/A
Sussex         PTSUNNY   69  60  73 SW6       30.26S
Andover          N/A     68  59  73 CALM      30.27R
Trenton        CLOUDY    72  61  68 SE5       30.24S
Millville      CLOUDY    72  65  78 E7        30.24R
Atlantic City  CLOUDY    71  62  73 NE8       30.25R
Wrightstown    PTSUNNY   71  61  71 CALM      30.23R
Toms River     CLOUDY    71  60  68 E6        30.26S
Belmar         PTSUNNY   70  59  68 E10       30.26S
$$

PAZ047>061-062-071-261600-
EASTERN PENNSYLVANIA

CITY           SKY/WX    TMP DP  RH WIND       PRES   REMARKS
Philadelphia   CLOUDY    75  63  66 E7        30.24S
Allentown      CLOUDY    73  61  65 CALM      30.25S
Scranton       CLOUDY    68  60  75 CALM      30.25S
$$

CTZ002-004>006-009-010-012-RIZ004-006-007-MAZ004-011-015-261600-
SOUTHERN NEW ENGLAND
 IN CT

CITY           SKY/WX    TMP DP  RH WIND       PRES   REMARKS
Bradley INTL   MOSUNNY   71  59  65 VRB3      30.24F
Hartford       MOSUNNY  N/A N/A N/A CALM      30.23F
Danbury        SUNNY     71  55  56 S6        30.26F
Wtrbury/Oxford MOSUNNY   70  52  52 CALM      30.26F
Bridgeport     SUNNY     72  56  57 VRB7      30.24F
Meriden        SUNNY     73  55  53 NE5       30.23F
New Haven      SUNNY     75  56  51 SE8       30.24F
Chester        FAIR      73  55  53 VRB6      30.25S
Groton         MOSUNNY   72  60  66 S9        30.24S
Wilimantic     SUNNY     74  55  51 CALM      30.24F

 IN RI

CITY           SKY/WX    TMP DP  RH WIND       PRES   REMARKS
Providence     MOSUNNY   74  57  55 CALM      30.24F
Block Island   SUNNY     68  60  75 NE3       30.26R
Westerly       MOSUNNY   76  56  49 N7        30.25S
 IN MA

CITY           SKY/WX    TMP DP  RH WIND       PRES   REMARKS
Boston         MOSUNNY   70  60  70 SE8       30.23S
Worcester      SUNNY     71  49  45 SE6       30.25F
Westfield      SUNNY     73  59  61 VRB3      30.24F
Provincetown   SUNNY     67  59  75 W6        30.24S
Nantucket      SUNNY     70  57  63 E8        30.23S
$$

ANZ330-335-338-340-345-350-353-355-261600-
COASTAL MARINE OBSERVATIONS


STATION/POSITION TIME  SKY/WX   TEMP    WIND        PRES    VSBY  WAVE
                                AIR SEA DIR/SP/G                  HT/PER
                 (UTC)          (F)     (DEG/KT/KT) (MB)    (MI)  (FT/S)
NY HARB ENTRANCE 1350            67 71   50/  8/ 10 1024.1          2/ 6
20 S FIRE ISLAND 1450            67 73   50/ 10/ 14 1024.0          3/ 5
GREAT SOUTH BAY  1430            70 75   70/  2/  8   N/A
23 SSW MONTAUK P 1350            65 71              1024.4          2/ 7
15 E BARNEGAT LI 1430               71                N/A           3/ 5
HUDSON CANYON    1350            67 74   60/ 16/ 17 1022.8          3/ 5
KINGS POINT      1430            68 71   30/  8/  9 1023.9
EXECUTION ROCKS  1445            70      70/  6/  6   N/A
CENTRAL LI SOUND NOT AVBL
EASTERN LI SOUND NOT AVBL
ROBBINS REEF     1430                   190/  6/ 11 1024.6
$$


>>>>>>>>>>>>>>>>>>>>>>>>>>>> KEY <<<<<<<<<<<<<<<<<<<<<<<<<<<
>                                                          <
>     SKY/WX - Sky Condition/Present Weather               <
>     TMP    - Temperature in Fahrenheit                   <
>     DP     - Dew Point in Fahrenheit                     <
>     RH     - Relative Humidity in Percent                <
>     WIND   - Direction (from) and Speed in MPH           <
>     PRES   - Mean Sea Level Pressure (inches of Hg)      <
>     WCI    - Wind Chill Index                            <
>     VSB    - VISIBILITY IN MILES                         <
>     HX     - HEAT INDEX                                  <
>     TC     - TEMPERATURE IN CELSIUS                      <
>     VRB    - VARIABLE WIND DIRECTION                     <
>                                                          <
>>>>>>>>>>>>>>>>>>>>>>>>>>>> KEY <<<<<<<<<<<<<<<<<<<<<<<<<<<



USA.gov is the U.S. government's official web portal to all federal, state and local government web resources and services.